Moses Lake, WA
on Saturday, January 12, 2013

Saturday
Previous Day Next Day
Daily Summary
 ActualAverageRecord
Temperature
Mean Temperature °F / °C 29°F / -2°C  
Max Temperature 28°F / -2°C 36°F / 2°C 54°F / 12°C (1983)
Min Temperature 15°F / -9°C 23°F / -5°C 5°F / -15°C (2007)
Degree Days
Heating Degree Days 43 36  
Month to date heating degree days 438 438  
Since 1 July heating degree days 2646 3025  
Cooling Degree Days 0 0  
Month to date cooling degree days 0 0  
Year to date cooling degree days 0 0  
Moisture
Dew Point 12°F / -11°C   
Average Humidity 72    
Maximum Humidity 88    
Minimum Humidity 55    
Precipitation
Precipitation 0.00 in / 0.00 cm 0.05 in / 1.27 cm 0.43 in / 1.09 cm (1980)
Month to date precipitation 0.27 0.60  
Year to date precipitation 0.27 0.60  
Wind
Wind Speed 5 mph / 8 km/h   
Max Wind Speed 21 mph / 34 km/h   
Max Gust Speed mph / km/h   
Visibility 10 miles / 16 kilometers   
Events     

Key: T is trace of precipitation, MM is missing value
Source: NWS Daily Summary
Time(PST)TemperatureDew PointHumidity Pressure Visibility Wind DirectionWind SpeedGust SpeedPrecipitationEvents Conditions
12:52 AM 17.1°F / -8.3°C 12.9°F / -10.6°C 84% 30.31 in / 1026.2 hPa 10.0 miles / 16.1 kilometers North 6.9 mph / 11.1 km/h - N/A   Clear
1:52 AM 17.1°F / -8.3°C 12.9°F / -10.6°C 84% 30.31 in / 1026.4 hPa 10.0 miles / 16.1 kilometers Calm Calm - N/A   Clear
2:52 AM 16.0°F / -8.9°C 12.0°F / -11.1°C 84% 30.32 in / 1026.5 hPa 10.0 miles / 16.1 kilometers North 3.5 mph / 5.6 km/h - N/A   Clear
3:52 AM 16.0°F / -8.9°C 12.0°F / -11.1°C 84% 30.31 in / 1026.3 hPa 10.0 miles / 16.1 kilometers North 5.8 mph / 9.3 km/h - N/A   Clear
4:52 AM 16.0°F / -8.9°C 12.0°F / -11.1°C 84% 30.32 in / 1026.6 hPa 10.0 miles / 16.1 kilometers North 5.8 mph / 9.3 km/h - N/A   Clear
5:52 AM 15.8°F / -9.0°C 10.4°F / -12.0°C 79% 30.27 in / 1024.9 hPa 10.0 miles / 16.1 kilometers North 5.8 mph / 9.3 km/h - N/A   Clear
6:52 AM 15.1°F / -9.4°C 10.9°F / -11.7°C 84% 30.35 in / 1027.5 hPa 10.0 miles / 16.1 kilometers North 6.9 mph / 11.1 km/h - N/A   Partly Cloudy
7:14 AM 15.8°F / -9.0°C 12.2°F / -11.0°C 86% 30.29 in / 1025.6 hPa 9.0 miles / 14.5 kilometers North 6.9 mph / 11.1 km/h - N/A   Mostly Cloudy
7:52 AM 16.0°F / -8.9°C 12.9°F / -10.6°C 88% 30.37 in / 1028.3 hPa 5.0 miles / 8.0 kilometers North 4.6 mph / 7.4 km/h - N/A   Overcast
8:50 AM 15.8°F / -9.0°C 12.2°F / -11.0°C 86% 30.31 in / 1026.3 hPa 9.0 miles / 14.5 kilometers NNE 6.9 mph / 11.1 km/h - N/A   Scattered Clouds
8:52 AM 15.8°F / -9.0°C 12.2°F / -11.0°C 86% 30.32 in / 1026.6 hPa 9.0 miles / 14.5 kilometers NNE 6.9 mph / 11.1 km/h - N/A   Partly Cloudy
9:52 AM 19.0°F / -7.2°C 14.0°F / -10.0°C 81% 30.39 in / 1029.0 hPa 10.0 miles / 16.1 kilometers NNE 5.8 mph / 9.3 km/h - N/A   Clear
10:52 AM 21.9°F / -5.6°C 14.0°F / -10.0°C 72% 30.39 in / 1029.1 hPa 10.0 miles / 16.1 kilometers NNE 8.1 mph / 13.0 km/h - N/A   Clear
11:52 AM 23.0°F / -5.0°C 14.0°F / -10.0°C 68% 30.38 in / 1028.7 hPa 10.0 miles / 16.1 kilometers NNW 6.9 mph / 11.1 km/h - N/A   Clear
12:52 PM 26.1°F / -3.3°C 14.0°F / -10.0°C 60% 30.38 in / 1028.5 hPa 10.0 miles / 16.1 kilometers NNE 5.8 mph / 9.3 km/h - N/A   Clear
1:52 PM 27.0°F / -2.8°C 12.9°F / -10.6°C 56% 30.38 in / 1028.5 hPa 10.0 miles / 16.1 kilometers NNE 5.8 mph / 9.3 km/h - N/A   Clear
2:52 PM 27.0°F / -2.8°C 12.9°F / -10.6°C 56% 30.39 in / 1028.9 hPa 10.0 miles / 16.1 kilometers North 6.9 mph / 11.1 km/h - N/A   Clear
3:52 PM 26.1°F / -3.3°C 12.9°F / -10.6°C 58% 30.40 in / 1029.2 hPa 10.0 miles / 16.1 kilometers North 3.5 mph / 5.6 km/h - N/A   Clear
4:52 PM 23.0°F / -5.0°C 12.9°F / -10.6°C 65% 30.40 in / 1029.5 hPa 10.0 miles / 16.1 kilometers NNE 3.5 mph / 5.6 km/h - N/A   Clear
5:52 PM 19.0°F / -7.2°C 12.0°F / -11.1°C 74% 30.41 in / 1029.6 hPa 10.0 miles / 16.1 kilometers North 4.6 mph / 7.4 km/h - N/A   Clear
6:52 PM 19.4°F / -7.0°C 12.2°F / -11.0°C 74% 30.36 in / 1028.0 hPa 10.0 miles / 16.1 kilometers NNE 4.6 mph / 7.4 km/h - N/A   Clear
7:52 PM 17.1°F / -8.3°C 10.9°F / -11.7°C 77% 30.43 in / 1030.3 hPa 10.0 miles / 16.1 kilometers NE 4.6 mph / 7.4 km/h - N/A   Clear
8:52 PM 16.0°F / -8.9°C 10.9°F / -11.7°C 81% 30.43 in / 1030.4 hPa 10.0 miles / 16.1 kilometers NW 4.6 mph / 7.4 km/h - N/A   Clear
9:52 PM 15.8°F / -9.0°C 10.4°F / -12.0°C 79% 30.35 in / 1027.7 hPa 10.0 miles / 16.1 kilometers Calm Calm - N/A   Clear
10:52 PM 15.1°F / -9.4°C 10.0°F / -12.2°C 80% 30.41 in / 1029.7 hPa 10.0 miles / 16.1 kilometers Calm Calm - N/A   Partly Cloudy
11:52 PM 17.1°F / -8.3°C 12.0°F / -11.1°C 81% 30.42 in / 1029.9 hPa 10.0 miles / 16.1 kilometers North 3.5 mph / 5.6 km/h - N/A   Overcast
Moon Phase
Jan. 12 Jan. 18 Jan. 26 Feb. 03 Feb. 10
Sunrise:07:40 AM (PST) Moon Rise:07:56 AM (PST)1/12
Sunset:04:31 PM (PST) Moon Set:06:14 PM (PST)1/12

Copyright © 2014 The Weather Underground, Inc.